Regional Weather Roundup
Issued by NWS

Home | Current Version | Previous Version | Text Only | Print | Product List | Glossary On
Versions: 1 2 3 4 5 6 7 8 9 10 11 12 13 14 15 16 17 18 19 20 21 22 23 24 25 26 27 28 29 30 31 32 33 34 35 36 37 38 39 40 41 42 43 44 45 46 47 48 49 50
000
ASUS43 KTOP 251608
RWRKS

WEATHER ROUNDUP FOR KANSAS
NATIONAL WEATHER SERVICE GOODLAND KS
1100 AM CDT FRI JUL 25 2014

NOTE:  "FAIR" INDICATES FEW OR NO CLOUDS BELOW 12,000 FEET WITH NO
SIGNIFICANT WEATHER AND/OR OBSTRUCTIONS TO VISIBILITY.

KSZ001>006-013>018-027>032-041>047-251700-
NORTHWEST KANSAS

CITY           SKY/WX    TMP DP  RH WIND       PRES   REMARKS
GOODLAND       MOSUNNY   89  54  30 N14       29.96R
HAYS           PTSUNNY   82  61  47 SW20G25   29.83S
HILL CITY      PTSUNNY   88  61  40 SW7       29.82F
RUSSELL        MOSUNNY   91  64  40 SW22G29   29.80F
$$

KSZ061>065-074>080-084>089-251700-
SOUTHWEST KANSAS

CITY           SKY/WX    TMP DP  RH WIND       PRES   REMARKS
DODGE CITY     SUNNY     89  60  37 SW25G36   29.90F
ELKHART          N/A     89  55  31 SW14        N/A
GARDEN CITY    SUNNY     88  60  38 SW14      29.91S
GREAT BEND     MOSUNNY   91  66  43 SW21      29.82F
LIBERAL        SUNNY     91  61  35 SW28      29.96F
PRATT          SUNNY     88  64  45 SW20      29.90F
$$

KSZ066>073-081>083-090>101-251700-
SOUTHEAST KANSAS

CITY           SKY/WX    TMP DP  RH WIND       PRES   REMARKS
CHANUTE        SUNNY     85  71  63 S17G25    29.93F
COFFEYVILLE    SUNNY     85  72  65 S21G28    29.94F
HUTCHINSON     MOSUNNY   91  67  44 SW23G30   29.86F
MEDICINE LODGE   N/A     89  69  51 SW17      29.89F
NEWTON         SUNNY     88  66  48 SW20G30   29.90F
PARSONS        SUNNY     85  72  65 S14G23    29.96S
WICHITA INTL   MOSUNNY   89  69  51 SW17G25   29.88F
WICHITA JABRA  SUNNY     89  70  53 SW17      29.88F
WICHITA MCCONL SUNNY     87  70  55 S17G25    29.89F
WINFIELD       SUNNY     88  71  57 SW23G32   29.93F
$$

KSZ007>012-019>026-033>040-048>060-102>105-251700-
NORTHEAST KANSAS

CITY           SKY/WX    TMP DP  RH WIND       PRES   REMARKS
CONCORDIA      SUNNY     91  68  46 SW22G33   29.78F HX  95
EMPORIA        SUNNY     89  69  51 SW21      29.87S
LAWRENCE       MOSUNNY   87  71  58 S12G24    29.84F
MANHATTAN      SUNNY     93  69  45 SW15G25   29.80F HX  98
MARYSVILLE     SUNNY     91  70  49 SW20G26   29.79F HX  97
OLATHE IND     MOSUNNY   87  71  58 SW18G26   29.88F
OLATHE EXE     MOSUNNY   84  71  65 S13G25    29.87F
SALINA         MOSUNNY   95  67  39 SW23G30   29.81S HX  99
TOPEKA BILLARD MOSUNNY   87  70  56 SW10      29.83F
TOPEKA FORBES  LGT RAIN  90  69  50 SW18G25   29.83F
$$


USA.gov is the U.S. government's official web portal to all federal, state and local government web resources and services.